Погода Исанбай

Погода Исанбай : погода сейчас, прогноз погоды и архив. Всё, что Вы хотите узнать о погоде Исанбай!

Поиск расширенной информации на нашем сайте:

Другие новости

Новости СМИ2

Главная страница сайта

Новости сайта

03.07.2017

Напоминаем, что на нашем специализированном сайте Метеоцентр.Азия вы можете получить высокодетализированные автоматические прогнозы погоды по пунктам России, СНГ и мира в авиационном формате (включающие направление и скорость ветра, видимость, явления погоды, количество и форму облачности, нижнюю и верхнюю границу облачности).


Погода Исанбай - сегодня

Время (UTC), дата Ветер
(°,м/с) 
Видим.   Явления Облачность Т
(°С)
Тd
(°С)
f(%) Тe
(°С)
Pmin
(гПа)
dP
(гПа)
Po
(мм)
O2
(г/м3)
Тmin Tmax R s Состояние
почвы
15 22.09.18 тихо ()   н/о    ясно 
+23.4 +8.1 38 +23  1013.9  1.5  713  263    +30       
18 22.09.18 050 (СВ) н/о    9/0 средняя 
[Ac trans]
+20.6 +8.1 45 +21  1016.2  1.6  714  266           
21 22.09.18 тихо ()   н/о    9/4 1000 м кучево-дожд., средняя 
[Cb cap|Ac trans]
+19.5 +8.4 49 +20  1015.9  -0.6  714  267           
00 23.09.18 070 (В) н/о    4/0 верхняя 
[Ci sp]
+17 +8.2 56 +17  1017.5  715  270           
03 23.09.18 050 (СВ) 20000 м    9/4 1000 м кучево-дожд., средняя, верхняя 
[Cb cap|Ac trans|Ci sp]
+18.8 +6.7 45 +20  1017.3  0.3  715  268  +16.4         
06 23.09.18 230 (ЮЗ) 20000 м    8/3 1000 м верхняя 
[Sc|Ci sp]
+25.7 +5.5 27 +26  1015.7  -0.2  715  262           
09 23.09.18 230 (ЮЗ) 20000 м    3/3 1000 м 
[Cu hum]
+28.5 +3.6 20 +29  1013.1  -1.8  713  260           
12 23.09.18 230 (ЮЗ) 20000 м    ясно 
+28.8 +5.5 23 +29  1012.2  0.8  713  259           
15 23.09.18 230 (ЮЗ) н/о    ясно 
+23.7 +6.1 32 +24  1014.7  1.2  714  264    +29.5       
18 23.09.18 050 (СВ) н/о    ясно 
+17.7 +8.1 53 +19  1017.5  1.5  715  269           
21 23.09.18 050 (СВ) н/о    ясно 
+16.8 +8.4 58 +17  1018.7  0.9  716  270           
00 24.09.18 230 (ЮЗ) н/о    ясно 
+13.4 +7 65 +15  1017.6  -1.7  714  273           
03 24.09.18 090 (В) 20000 м    ясно 
+15.8 +6.8 55 +17  1017.3  0.2  714  271  +12.4         
06 24.09.18 270 (З) 20000 м    ясно 
+25.3 +9.4 37 +27  1015  -0.2  714  262           
09 24.09.18 тихо ()   20000 м    ясно 
+31.1 +6.4 21 +31  1011.4  -2.2  713  257           
12 24.09.18 320 (СЗ) 20000 м    ясно 
+30.8 +5.5 20 +31  1008.6  -2.7  711  256           
15 24.09.18 090 (В) н/о    3/0 верхняя 
[Ci fib]
+25.1 +6.7 31 +25  1011.4  1.5  712  261    +31.6       
18 24.09.18 140 (ЮВ) н/о    ясно 
+20.6 +3 31 +21  1013.6  1.1  713  266           
21 24.09.18 050 (СВ) н/о    ясно 
+19.3 +4 36 +20  1014.7  0.7  713  268           
00 25.09.18 050 (СВ) н/о    ясно 
+15.6 +7.1 57 +16  1015.4  -0.1  713  270           
03 25.09.18 050 (СВ) 20000 м    ясно 
+15.4 +7.8 60 +17  1016.9  1.4  714  271  +13.9         
06 25.09.18 360 (С) 20000 м    ясно 
+25.8 +5.3 27 +26  1014.2  -0.3  714  262           
09 25.09.18 230 (ЮЗ) 20000 м    ясно 
+29.9 +2.9 18 +30  1011.8  -1.5  713  258           
12 25.09.18 230 (ЮЗ) 20000 м    ясно 
+29.9 +3.2 18 +30  1010.1  -1.6  711  258           
15 25.09.18 230 (ЮЗ) н/о    6/0 верхняя 
[Ci fib]
+24 +4.3 28 +24  1011.7  0.3  712  263    +31.1       
Время (UTC), дата Ветер
(°,м/с) 
Видим.   Явления Облачность Т
(°С)
Тd
(°С)
f(%) Тe
(°С)
Pmin
(гПа)
dP
(гПа)
Po
(мм)
O2
(г/м3)
Тmin Tmax R s Состояние
почвы

Для получения пояснительной информации подведите курсор к названию столбца.

ПОГОДА Исанбай - архив

Всё, что Вы хотите узнать о погоде Исанбай - удобно и подробно!

Выберите нужную дату (начиная с 1 января 2015* года) и нажмите кнопку "Найти".
Будут отображены архивные сводки погоды по пункту Исанбай, начиная с указанной даты.


Отображать данные в формате CSV (для использования в таблицах Excel)


Внимание! Наш архив погоды предназначен исключительно для личного некоммерческого использования в познавательных целях. Если Вам необходимы официальные справки о состоянии погоды (для производственных, юридических, коммерческих и т.п. целей), обращайтесь в органы Росгидромета.

*Примечание: данная дата относится к архиву по метеостанциям СССР (Россия, СНГ, Балтия).
Архив по метеостанциям Зарубежной Европы и Азии (кроме Китая) хранится 10 дней, по другим регионам земного шара (Китай, Африка, Америка, Австралия, Океания) - 1 день.

Исанбай - район местоположения метеостанции


Название, широта, долгота, высота метеостанции:
Исанбай 38°ш. 68.4°д. 565 м над ур. моря [Таджикистан]

Дополнительная информация

В oтличие oт бoльшинства пoгoдных сайтoв мы публикуем пoдрoбную метеoинфoрмацию в детальнoм прoфессиoнальнoм фoрмате.

Характеристики температуры и влажнoсти вoздуха измеряются на высoте 2 м в тени вдали oт зданий и деревьев.
Скoрoсть ветра измеряется на высoте 10 м (на урoвне рoста челoвека скoрoсть ветра ниже в 1.5-2 раза). Если метеoстанция нахoдится в гoрoде или в лесу, тo скoрoсть ветра занижена на 2-4 м/с пo сравнению с oткрытым местoм. Скoрoсть ветра над акватoриями крупных рек и oзёр, а также на вершинах хoлмoв на 2-5 м/с выше, чем в oбычных услoвиях.
Атмoсфернoе давление в разных тoчках местнoсти мoжет значительнo oтличаться oт давления на метеoстанции, в зависимoсти oт услoвий рельефа (при пoдъёме на 10 м давление пoнижается примернo на 1 мм рт.ст.).